Erie, PA

6:43 AM EST on December 13, 2019 (GMT -0500)
Erie International

Weather History for KERI - October, 2019

Change the Weather History Date:

Wednesday, October 30, 2019

  Actual Average Record
Temperature  
Mean Temperature 56 °F 49 °F  
Max Temperature 61 °F 56 °F 79 °F (1946)
Min Temperature 50 °F 41 °F 25 °F (1975)
Degree Days  
Heating Degree Days 10 16  
Month to date heating degree days 247 363  
Since 1 July heating degree days 259 487  
Cooling Degree Days 0 0  
Month to date cooling degree days 22 7  
Year to date cooling degree days 847 636  
Growing Degree Days 6 (Base 50)    
Moisture  
Dew Point 51 °F    
Average Humidity 84    
Maximum Humidity 93    
Minimum Humidity 78    
Precipitation  
Precipitation 0.15 in 0.12 in 1.38 in (2016)
Month to date precipitation 2.48 3.93  
Year to date precipitation 32.11 34.37  
Snow  
Snow 0.00 in 0.10 in - ()
Month to date snowfall 0.0 0.2  
Since 1 July snowfall 0.0 0.2  
Since 1 September snowfall 0.0 0.2  
Snow Depth 0.00 in    
Sea Level Pressure  
Sea Level Pressure 30.14 in    
Wind  
Wind Speed 5 mph ()    
Max Wind Speed 15 mph    
Max Gust Speed 18 mph    
Visibility 7.9 miles    
Events Rain    
T = Trace of Precipitation, MM = Missing Value Source: Averaged Metar Reports

Daily Weather History Graph

Daily Weather History Graph

Search for Another Location

Airport or City:

Astronomy

Oct. 30, 2019 Rise Set
Actual Time 7:50 AM EDT 6:17 PM EDT
Civil Twilight 7:21 AM EDT 6:46 PM EDT
Nautical Twilight 6:48 AM EDT 7:19 PM EDT
Astronomical Twilight 6:16 AM EDT 7:51 PM EDT
Moon 10:34 AM EDT (10/30) 8:21 PM EDT (10/30)
Length of Visible Light 11h 24m
Length of Day
10h 26m
Waxing Crescent, 8% of the Moon is Illuminated
Oct 30
Waxing Crescent
Nov 4
First Quarter
Nov 12
Full
Nov 19
Last Quarter
Nov 26
New

Hourly Weather History & Observations

Time (EDT) Temp. Dew Point Humidity Pressure Visibility Wind Dir Wind Speed Gust Speed Precip Events Conditions
12:51 AM 52.0 °F 46.9 °F 83% 30.21 in 10.0 mi South 5.8 mph - N/A   Clear
1:51 AM 50.0 °F 46.0 °F 86% 30.23 in 10.0 mi SSW 3.5 mph - N/A   Mostly Cloudy
2:51 AM 54.0 °F 48.0 °F 80% 30.23 in 10.0 mi SSW 4.6 mph - N/A   Overcast
3:06 AM 53.1 °F 48.0 °F 83% 30.23 in 10.0 mi Calm Calm - N/A   Overcast
3:51 AM 53.1 °F 48.0 °F 83% 30.22 in 10.0 mi South 3.5 mph - N/A   Overcast
4:00 AM 53.1 °F 48.0 °F 83% 30.22 in 10.0 mi Calm Calm - N/A   Overcast
4:15 AM 53.1 °F 48.0 °F 83% 30.22 in 10.0 mi South 3.5 mph - N/A   Overcast
4:51 AM 54.0 °F 48.0 °F 80% 30.23 in 10.0 mi Calm Calm - N/A   Overcast
5:15 AM 53.1 °F 48.0 °F 83% 30.23 in 10.0 mi SSE 3.5 mph - N/A   Overcast
5:20 AM 53.1 °F 48.0 °F 83% 30.24 in 10.0 mi SSW 3.5 mph - N/A   Overcast
5:51 AM 53.1 °F 48.0 °F 83% 30.25 in 10.0 mi Calm Calm - N/A   Overcast
6:03 AM 53.1 °F 48.0 °F 83% 30.24 in 10.0 mi Calm Calm - N/A   Overcast
6:41 AM 54.0 °F 48.9 °F 83% 30.23 in 10.0 mi Calm Calm - N/A   Overcast
6:45 AM 53.6 °F 48.2 °F 82% 30.24 in 10.0 mi Calm Calm - N/A   Overcast
6:51 AM 54.0 °F 48.9 °F 83% 30.25 in 10.0 mi Calm Calm - N/A   Overcast
7:37 AM 55.0 °F 50.0 °F 83% 30.24 in 9.0 mi North 5.8 mph - N/A   Overcast
7:51 AM 55.0 °F 50.0 °F 83% 30.25 in 8.0 mi NNE 8.1 mph - N/A   Overcast
8:51 AM 54.0 °F 50.0 °F 86% 30.25 in 4.0 mi ENE 9.2 mph - N/A   Overcast
9:51 AM 55.0 °F 52.0 °F 89% 30.24 in 4.0 mi NE 9.2 mph - N/A   Overcast
10:29 AM 55.9 °F 52.0 °F 87% 30.24 in 5.0 mi ENE 6.9 mph - N/A   Overcast
10:51 AM 57.0 °F 52.0 °F 83% 30.23 in 5.0 mi ENE 8.1 mph - N/A   Haze
11:39 AM 57.9 °F 52.0 °F 81% 30.21 in 9.0 mi North 10.4 mph - N/A   Mostly Cloudy
11:43 AM 57.9 °F 51.1 °F 78% 30.21 in 10.0 mi NNE 11.5 mph - N/A   Mostly Cloudy
11:51 AM 57.0 °F 52.0 °F 83% 30.22 in 10.0 mi NNE 11.5 mph - N/A   Mostly Cloudy
12:51 PM 57.0 °F 52.0 °F 83% 30.17 in 10.0 mi NE 9.2 mph - N/A   Mostly Cloudy
1:13 PM 57.0 °F 52.0 °F 83% 30.14 in 10.0 mi NE 11.5 mph - N/A   Scattered Clouds
1:51 PM 57.9 °F 52.0 °F 81% 30.11 in 10.0 mi NNE 6.9 mph - N/A   Clear
2:51 PM 57.9 °F 52.0 °F 81% 30.09 in 9.0 mi NE 10.4 mph - N/A   Clear
3:51 PM 57.9 °F 53.1 °F 84% 30.06 in 8.0 mi NE 11.5 mph - N/A   Partly Cloudy
4:06 PM 57.0 °F 52.0 °F 83% 30.06 in 6.0 mi NE 10.4 mph - N/A   Haze
4:30 PM 57.0 °F 52.0 °F 83% 30.05 in 6.0 mi NE 10.4 mph - N/A   Haze
4:47 PM 57.2 °F 53.6 °F 88% 30.05 in 6.0 mi ENE 11.5 mph - N/A   Overcast
4:51 PM 57.0 °F 53.1 °F 87% 30.05 in 6.0 mi ENE 10.4 mph - N/A   Overcast
5:10 PM 57.0 °F 53.1 °F 87% 30.03 in 5.0 mi ENE 15.0 mph - 0.00 in Rain Light Rain
5:51 PM 57.0 °F 53.1 °F 87% 30.01 in 6.0 mi ENE 9.2 mph - 0.00 in   Overcast
6:05 PM 57.0 °F 53.1 °F 87% 30.00 in 5.0 mi NE 8.1 mph - N/A   Overcast
6:51 PM 57.0 °F 53.1 °F 87% 30.00 in 5.0 mi NE 5.8 mph - 0.00 in Rain Light Rain
7:51 PM 55.9 °F 53.1 °F 90% 29.97 in 5.0 mi ENE 6.9 mph - 0.02 in Rain Light Rain
8:51 PM 57.0 °F 54.0 °F 89% 29.95 in 5.0 mi NE 4.6 mph - 0.02 in   Overcast
9:51 PM 57.0 °F 54.0 °F 89% 29.92 in 4.0 mi NE 3.5 mph - 0.01 in Rain Light Rain
10:27 PM 57.0 °F 54.0 °F 89% 29.90 in 3.0 mi ENE 5.8 mph - 0.03 in Rain Light Rain
11:08 PM 57.9 °F 55.0 °F 90% 29.86 in 5.0 mi East 6.9 mph - 0.01 in Rain Light Rain
11:51 PM 61.0 °F 55.9 °F 83% 29.84 in 10.0 mi South 8.1 mph - 0.04 in Rain Light Rain